Temperature
13 14 14 15 19 20 22 22 22 21 21 21 20 22 23 24 23 22 17 16 16 16 16 16 16 16 16 16 16 16 17 17 17 17 17 17 17 16 16 16 16 16 16 16 16 16 16 16 16
13 13 14 17 20 21 22 22 21 22 21 18 19 20 21 21 18 16 16 16 16 16 16 16 16 16 16 16 16 16 16 16 16 17 17 17 16 16 16 16 16 16 16 16 16 16 16 16 15
13 13 15 18 19 21 22 22 22 21 18 18 19 19 20 19 16 15 15 16 15 15 15 15 16 16 16 16 16 16 16 16 16 16 16 16 16 16 16 16 16 16 16 16 16 15 15 15 15
12 14 16 18 19 21 22 21 20 20 18 18 19 19 17 15 15 15 15 15 15 14 14 15 15 15 15 16 16 16 16 16 16 16 16 16 16 16 16 16 15 15 15 15 15 15 15 15 15
13 15 17 18 19 20 20 19 18 20 20 19 19 20 18 15 15 15 15 14 14 14 14 14 15 15 15 15 15 15 15 15 15 15 16 16 16 16 15 15 15 15 15 15 15 15 15 15 15
13 16 18 19 19 19 19 18 18 20 20 18 18 19 17 15 15 15 14 14 14 14 14 14 15 15 15 15 15 15 15 15 15 15 15 15 15 15 15 15 15 15 15 15 15 15 15 14 14
14 16 18 19 19 19 19 18 19 20 20 19 18 19 17 14 14 14 14 14 14 14 14 14 14 14 15 15 15 15 15 15 15 15 15 15 15 15 15 15 15 15 15 15 15 14 14 14 14
13 16 17 18 18 19 19 17 17 18 19 17 17 19 18 14 14 14 13 14 14 14 14 14 14 14 14 14 14 15 15 15 15 15 15 15 15 15 15 15 15 14 14 14 14 14 14 14 14
12 15 16 17 18 18 17 17 16 15 16 15 15 16 15 14 14 14 13 13 13 14 14 14 14 14 14 14 14 14 14 14 14 14 14 14 14 14 14 14 14 14 14 14 14 14 14 13 13
13 14 16 17 17 18 17 17 16 16 17 16 15 14 14 14 14 14 13 13 13 13 14 14 14 14 14 14 14 14 14 14 14 14 14 14 14 14 14 14 14 14 14 14 14 13 13 13 13
13 15 16 15 15 15 16 16 15 17 18 18 17 15 14 13 13 13 13 13 13 13 14 14 14 14 14 14 14 14 14 14 14 14 14 14 14 14 14 13 13 13 13 13 13 13 13 12 12
13 14 14 15 14 14 15 15 15 16 17 16 15 15 14 13 13 13 13 13 13 13 13 13 13 13 13 13 13 13 13 13 13 14 13 13 13 13 13 13 13 13 13 13 13 13 12 12 12
13 13 13 13 13 13 14 14 15 15 15 14 14 14 14 13 13 13 13 13 13 13 13 13 13 13 13 13 13 13 13 13 13 13 13 13 13 13 13 13 13 13 13 12 12 12 12 12 12
13 13 13 13 13 13 14 14 14 15 14 14 14 14 13 13 13 12 12 13 13 13 13 13 13 13 13 13 13 13 13 13 13 13 13 13 13 12 12 12 12 12 12 12 12 12 12 11 11
12 12 13 13 13 13 13 14 15 14 13 13 13 13 13 13 12 12 13 13 13 13 13 13 13 12 12 12 12 12 13 12 12 12 12 12 12 12 12 12 12 12 12 12 12 11 11 11 11
12 12 12 13 13 13 13 14 16 14 13 14 13 13 12 12 12 12 12 13 13 12 12 12 12 12 12 12 12 12 12 12 12 12 12 12 12 12 12 11 12 12 11 11 11 11 11 11 11
11 12 12 13 13 13 13 14 15 13 13 14 13 13 12 12 12 12 12 13 13 12 12 12 12 12 12 12 12 12 12 12 12 11 11 11 11 11 11 11 11 11 11 11 11 11 10 10 10
11 12 12 13 12 12 13 14 14 12 12 13 13 12 12 12 12 12 12 12 12 12 12 12 12 12 12 11 11 11 11 11 11 11 11 11 11 11 11 11 11 11 11 10 10 10 10 10 10
11 12 12 12 12 12 12 13 13 13 12 13 13 12 12 12 12 12 12 12 12 12 12 12 11 11 11 11 11 11 11 11 11 11 11 11 11 10 10 10 10 10 10 10 10 9 9 9 9
10 10 11 11 11 11 12 12 13 13 12 12 12 12 12 12 11 11 12 12 12 12 12 12 11 11 11 11 11 11 11 11 10 10 10 10 10 10 10 10 10 10 10 9 9 9 9 9 8
9 10 10 10 10 10 11 12 12 12 12 11 11 11 11 11 11 11 11 12 12 12 12 12 11 11 11 11 11 11 10 10 10 10 10 10 10 9 9 9 9 9 9 9 9 8 8 8 8
9 10 10 10 10 10 10 11 13 12 12 12 11 11 10 10 10 10 11 11 12 12 12 11 11 11 11 11 11 11 10 10 10 10 10 10 9 9 9 9 9 9 9 8 8 8 7 7 7
8 9 9 9 10 9 10 9 12 11 12 12 12 11 10 9 10 10 11 11 11 11 11 11 11 11 11 11 11 10 10 10 10 10 9 9 9 9 9 8 8 8 8 8 8 7 7 7 7
8 8 8 8 9 8 10 10 12 12 12 12 11 10 9 9 9 9 10 10 11 10 11 11 10 10 10 10 10 10 10 10 9 9 9 9 9 9 8 8 8 8 8 7 7 7 7 7 6
7 7 7 7 7 9 10 10 12 11 10 10 10 9 8 8 8 8 9 10 10 10 10 10 10 10 10 10 10 10 10 9 9 9 9 9 9 8 8 8 8 7 7 7 7 7 6 6 6
7 8 8 8 9 10 9 10 11 10 9 8 8 8 7 7 7 7 8 9 9 10 10 10 10 10 10 10 9 9 9 9 9 9 8 8 8 8 8 7 7 7 7 7 6 6 6 6 6
7 7 8 7 8 8 9 10 10 9 9 8 8 7 7 6 6 7 7 8 9 9 9 10 9 9 9 9 9 9 9 9 8 8 8 8 8 8 7 7 7 7 6 6 6 6 6 6 5
7 7 6 7 7 8 9 10 10 9 9 8 8 7 6 6 6 6 7 8 8 9 9 9 9 9 9 9 8 9 8 8 8 8 8 7 7 7 7 7 6 6 6 6 6 6 5 5 5
5 5 6 7 7 8 9 10 9 8 7 7 7 6 5 5 5 5 6 7 7 8 8 8 8 8 8 8 8 8 8 8 7 7 7 7 7 7 6 6 6 6 6 5 5 5 5 5 5
5 5 6 6 6 7 8 9 7 6 6 5 5 4 4 4 4 5 5 6 6 7 7 7 7 7 7 7 7 7 7 7 7 7 7 7 6 6 6 6 6 5 5 5 5 5 4 4 4
Wind_Speed
2 3 3 4 6 7 14 10 6 6 6 4 4 5 6 6 3 1 4 9 12 14 14 16 15 15 15 14 14 14 14 14 14 13 13 13 12 11 11 11 10 10 10 10 10 10 10 10 9
3 4 4 5 8 12 11 11 11 8 4 5 5 4 4 4 1 4 6 10 13 14 14 15 16 15 15 15 14 14 14 14 13 13 12 12 12 11 11 11 11 10 10 10 10 10 10 10 9
5 4 5 6 9 14 10 8 10 6 5 5 5 3 3 2 4 4 7 12 13 13 13 15 16 15 15 15 14 14 14 13 13 13 12 12 12 11 11 11 11 10 10 10 9 9 9 9 9
5 4 5 9 16 14 8 4 5 8 6 5 5 4 2 2 2 5 10 13 14 13 13 15 15 15 15 14 14 14 13 13 13 12 12 12 11 11 11 11 11 10 10 10 9 9 8 8 8
4 5 8 12 17 12 9 5 5 8 8 7 7 4 4 3 4 8 12 13 14 13 13 15 14 15 15 14 14 13 13 13 12 12 11 11 11 11 10 10 10 10 9 9 9 8 8 8 7
6 6 11 17 17 11 9 8 7 7 7 6 7 5 3 5 7 10 12 13 13 12 12 14 14 14 14 14 14 13 13 13 12 11 11 11 11 10 10 10 10 10 9 9 9 8 8 8 7
7 8 13 15 15 13 9 8 10 9 9 7 6 6 5 7 8 11 12 12 12 12 12 12 13 13 14 14 14 13 13 12 12 11 11 11 11 11 10 10 10 9 9 8 8 8 8 8 8
6 6 11 13 13 12 7 7 6 9 8 4 5 6 5 9 11 12 12 11 11 10 11 11 12 12 12 13 13 13 13 13 12 12 12 12 11 11 10 10 10 9 9 8 8 8 8 7 7
5 9 14 14 11 8 7 8 5 3 5 5 4 1 4 13 14 14 13 11 10 10 10 10 10 11 11 11 12 13 13 12 12 11 11 9 8 8 8 10 10 9 9 9 8 8 7 6 6
10 13 16 9 7 5 6 7 6 6 8 7 6 4 9 14 15 16 16 15 14 12 11 10 10 10 10 10 10 9 9 9 8 8 8 7 6 7 8 9 9 9 8 8 7 6 5 3 3
11 14 11 8 6 4 5 5 6 8 9 9 10 11 14 15 16 16 16 15 14 13 11 10 10 10 9 8 8 7 7 7 7 7 7 6 6 6 5 5 5 5 5 5 4 3 4 3 3
11 13 10 7 5 5 5 4 6 9 6 2 5 10 15 17 17 17 16 15 13 12 11 10 10 9 9 8 7 7 6 5 5 6 6 5 4 4 4 3 3 3 3 3 3 3 3 4 4
15 11 10 7 5 5 5 7 6 9 7 4 5 11 15 16 16 15 14 13 13 12 11 11 10 10 9 8 6 6 6 5 6 5 5 5 4 4 4 3 3 3 3 2 2 2 3 3 3
10 10 9 9 9 8 8 9 8 9 5 5 8 12 14 15 15 14 14 14 14 13 12 11 11 10 9 8 7 6 6 6 6 5 5 5 4 4 3 3 3 2 2 2 2 2 2 2 2
8 9 10 10 11 8 7 12 14 10 7 8 9 11 12 13 14 15 15 15 15 14 12 12 11 10 10 8 7 6 6 6 5 5 5 5 4 4 3 2 2 2 2 1 2 2 2 2 2
10 11 12 10 10 9 11 16 12 8 10 10 10 11 11 12 13 13 14 13 13 13 13 12 9 10 10 8 7 6 6 6 5 5 5 5 4 4 3 2 2 2 1 1 1 1 2 2 2
11 14 16 11 10 9 12 13 8 6 9 11 10 11 11 12 13 13 13 13 13 14 13 13 11 11 10 8 7 6 6 5 5 5 5 4 4 4 3 2 2 1 1 1 1 1 1 2 3
15 16 15 14 8 10 14 14 8 7 8 10 9 10 11 12 13 12 12 12 12 13 13 13 12 11 10 8 6 5 5 5 5 5 4 5 4 4 3 3 2 2 1 1 1 2 2 2 2
11 14 14 11 6 10 15 16 13 10 10 11 11 11 11 12 10 9 10 11 12 13 14 14 13 12 10 8 7 6 6 5 4 4 5 5 4 4 3 2 2 1 1 1 1 1 2 2 2
11 12 12 7 5 8 11 15 14 13 14 13 13 13 13 11 10 9 10 11 13 14 14 14 14 13 12 9 7 5 5 4 4 4 4 4 4 4 3 3 2 2 1 1 1 1 1 1 2
13 13 12 7 5 6 7 12 15 11 12 11 12 12 11 11 11 11 11 12 13 14 14 13 14 14 13 11 7 6 5 4 4 4 4 4 5 4 4 3 2 2 1 1 0 0 0 1 1
12 10 9 8 7 6 7 8 11 10 10 11 11 10 11 10 10 10 10 11 13 13 13 14 14 14 13 12 10 11 8 7 6 6 5 5 5 5 4 3 3 2 1 1 1 0 1 1 1
6 5 8 10 9 7 9 8 9 8 11 11 10 9 8 8 9 9 10 10 11 11 12 12 13 13 13 12 12 12 9 7 5 6 6 5 5 4 4 4 3 2 1 1 1 1 1 1 2
5 3 2 5 7 10 13 12 9 7 10 9 8 7 7 7 6 7 7 8 8 9 10 11 13 13 13 12 12 12 11 9 8 8 7 5 4 4 4 4 3 3 2 2 2 2 2 2 2
7 6 4 6 7 9 9 10 9 4 5 7 7 6 5 5 5 5 5 7 8 9 10 12 13 13 13 13 12 11 11 10 10 9 8 6 5 4 4 4 3 3 3 2 2 2 2 2 3
10 10 7 6 8 6 7 11 5 2 2 3 3 3 2 2 3 4 5 6 7 9 10 11 13 13 13 12 11 10 10 8 7 8 7 7 5 4 5 4 4 3 3 3 3 2 2 2 3
8 8 3 2 3 5 7 6 5 4 3 2 1 1 1 1 2 2 3 4 6 8 10 12 12 12 12 12 11 10 9 8 8 7 6 5 4 4 5 5 4 3 3 3 3 2 2 2 3
5 5 4 5 5 6 7 9 6 4 3 1 1 2 2 2 2 1 2 3 4 6 8 10 11 11 11 11 10 8 9 8 7 7 6 6 5 4 5 4 4 3 3 3 2 2 2 2 2
4 5 3 4 4 5 5 4 0 3 1 3 3 3 3 2 2 2 1 2 3 5 7 8 9 10 9 9 9 8 8 7 7 6 6 5 5 5 5 4 4 3 3 3 2 2 2 2 3
3 6 5 5 4 4 4 2 3 2 3 3 4 4 3 3 2 1 0 1 3 4 6 7 8 9 9 8 8 8 7 7 7 6 6 5 5 4 4 4 3 3 2 2 2 2 2 2 3
Wind_Direction
204 188 188 196 204 222 231 219 213 191 194 196 185 192 206 200 201 129 105 149 145 145 143 141 141 140 137 132 128 125 121 118 115 113 109 106 103 100 97 95 92 89 86 82 80 77 73 72 71
185 179 188 204 219 220 225 218 211 203 167 154 177 198 200 199 68 97 138 149 147 143 143 140 134 135 134 132 130 127 123 120 116 113 110 106 103 99 96 93 89 88 87 83 79 76 72 71 68
173 203 201 203 221 226 223 203 211 189 168 178 176 198 213 157 129 129 137 149 147 143 141 134 134 133 131 128 128 128 125 121 118 114 111 108 104 99 95 92 88 87 85 83 79 76 74 71 67
178 187 209 223 224 226 235 180 181 183 184 199 191 171 161 82 123 128 141 153 149 144 140 134 135 133 131 129 127 124 124 123 120 116 112 108 104 99 95 92 88 85 82 80 78 76 73 69 66
201 200 207 223 228 226 228 224 191 192 184 188 197 189 156 123 120 136 149 154 149 143 138 136 134 132 131 130 128 125 122 123 122 119 114 109 105 101 97 94 89 85 81 79 76 72 69 65 64
191 208 216 223 223 223 224 216 203 204 192 182 195 193 149 132 146 147 151 154 148 142 137 136 131 130 130 129 128 126 123 120 119 118 114 109 105 102 98 93 89 84 80 77 74 69 66 63 62
207 209 225 229 227 224 219 203 212 210 204 193 187 185 152 153 149 150 151 150 147 144 140 138 139 135 130 128 126 122 120 119 116 112 110 107 103 100 97 93 88 84 80 76 72 68 66 64 62
221 220 227 226 226 225 206 194 218 218 213 171 191 198 171 156 150 148 147 147 146 147 145 143 142 141 140 134 125 122 120 116 111 106 103 106 105 100 95 93 86 83 79 75 71 66 64 63 62
206 223 226 221 221 220 191 196 192 208 193 182 197 211 112 141 150 151 150 152 152 153 153 149 145 142 140 137 130 126 120 116 114 108 104 108 111 107 101 87 83 81 77 74 70 67 65 65 69
202 223 229 228 225 217 191 204 190 186 197 198 190 163 141 152 163 166 167 167 166 164 161 156 150 146 141 136 135 133 128 126 122 120 118 111 104 99 98 93 85 82 80 76 68 66 67 52 59
207 225 230 229 227 228 207 206 198 205 213 213 200 176 161 167 174 179 178 175 171 167 162 161 155 150 145 140 137 133 129 125 122 121 121 116 108 103 100 101 95 87 81 72 66 61 47 40 36
217 226 227 226 222 226 222 210 215 225 231 244 209 174 169 176 183 185 183 178 172 169 167 164 159 153 150 145 140 138 134 129 125 125 126 122 112 105 96 94 91 85 73 64 55 47 46 41 38
221 223 225 232 229 234 235 235 244 243 252 252 194 180 183 185 188 188 185 180 176 174 172 169 164 158 153 147 143 141 138 136 130 126 125 121 117 110 105 95 89 83 75 70 56 50 46 39 32
216 221 226 233 235 236 238 249 246 243 233 214 196 195 195 193 191 187 186 186 185 182 176 171 170 165 158 156 152 144 139 136 134 128 125 125 118 116 115 106 88 77 71 61 55 48 37 32 27
209 219 231 231 228 226 230 248 238 238 224 219 210 205 201 199 196 196 193 191 189 185 178 174 171 167 165 161 155 146 145 145 137 130 132 128 122 124 120 110 99 77 65 79 65 51 30 29 21
202 217 227 220 214 215 217 244 234 225 218 223 217 210 207 205 203 202 199 195 191 186 180 174 170 171 169 163 158 150 151 150 140 135 134 132 129 129 124 114 101 89 73 71 66 32 17 15 0
203 219 223 221 210 206 216 245 236 212 218 223 218 214 213 210 210 206 201 197 193 189 182 176 173 173 169 163 158 153 151 151 145 141 139 140 139 140 132 119 111 109 84 65 55 24 6 6 358
206 216 222 221 205 212 225 239 237 229 228 230 225 221 218 216 213 206 202 198 192 189 184 179 175 174 165 159 156 151 154 156 151 148 147 148 147 148 136 126 123 117 103 67 39 36 23 15 356
221 221 226 229 224 223 234 243 244 239 238 237 233 227 225 224 216 205 201 193 188 187 185 182 179 175 169 167 168 169 174 170 164 153 155 155 153 153 144 134 134 133 118 81 48 42 41 28 4
218 221 225 229 219 231 243 250 250 243 241 239 239 235 229 224 215 205 198 191 190 188 187 185 184 181 180 179 175 176 167 171 165 155 157 160 161 160 158 155 149 143 132 115 82 56 38 26 7
221 223 221 219 228 234 254 254 239 235 236 240 241 240 235 226 219 211 203 198 194 192 191 188 187 185 183 177 164 149 145 152 166 172 171 173 172 169 168 168 161 154 154 152 132 121 336 339 356
225 221 218 209 212 227 221 253 234 224 231 235 236 234 233 229 224 218 208 203 199 197 191 190 187 184 183 177 175 172 178 181 187 182 177 175 177 173 173 171 173 169 168 174 189 250 278 262 283
220 209 217 221 225 240 228 243 247 219 232 230 229 229 230 226 221 218 213 206 202 196 190 189 185 183 182 183 183 183 186 183 172 170 173 175 176 176 177 178 179 181 187 196 212 234 257 264 268
159 146 186 216 219 233 222 223 247 219 225 229 232 235 234 225 218 216 211 201 197 190 186 186 184 183 182 184 187 189 185 175 169 174 176 179 179 180 182 185 187 192 198 207 222 240 248 261 269
181 172 178 195 206 227 200 220 243 228 240 239 238 238 233 221 213 210 206 198 192 186 183 185 185 183 182 183 188 191 187 181 180 181 183 183 185 189 192 194 199 202 212 218 225 241 251 257 263
205 202 207 210 212 218 200 226 234 228 236 236 252 257 237 221 208 208 206 199 193 189 184 183 186 184 181 183 187 189 187 185 186 186 185 190 194 194 192 198 205 209 214 218 224 237 249 260 267
192 211 241 248 239 228 216 232 240 225 221 216 251 328 321 262 224 216 206 197 193 190 187 185 183 182 182 183 183 185 185 185 184 184 185 188 189 187 189 195 202 207 214 219 226 236 247 264 270
210 186 195 202 199 220 219 230 221 200 225 228 281 308 319 319 316 286 224 200 191 188 185 184 182 180 179 179 180 180 183 184 182 181 181 180 181 181 185 191 198 203 210 219 229 241 252 261 275
192 199 211 204 242 235 223 221 61 224 263 270 286 312 322 323 315 304 269 201 179 172 174 177 179 175 173 175 175 173 175 177 176 177 177 175 173 177 183 187 193 200 208 219 228 244 255 262 278
236 215 204 209 214 241 251 240 15 325 328 319 323 338 341 346 345 348 358 160 158 162 168 172 175 173 171 169 169 168 166 166 170 171 169 166 168 173 179 182 188 195 204 216 230 246 256 264 278
Height
1509 1511 1514 1518 1517 1512 1503 1497 1499 1501 1502 1504 1505 1505 1503 1503 1506 1511 1511 1511 1514 1517 1520 1523 1525 1528 1530 1531 1533 1535 1536 1537 1538 1538 1539 1540 1540 1540 1540 1541 1541 1541 1541 1541 1540 1540 1540 1540 1539
1509 1512 1516 1517 1509 1505 1498 1494 1498 1498 1501 1504 1506 1506 1505 1505 1508 1509 1508 1510 1514 1517 1520 1523 1525 1528 1530 1532 1533 1535 1536 1537 1538 1539 1539 1540 1540 1541 1541 1541 1541 1541 1541 1541 1540 1540 1540 1540 1539
1509 1511 1515 1510 1504 1495 1491 1493 1494 1499 1503 1504 1505 1506 1506 1506 1508 1508 1508 1510 1514 1517 1520 1523 1525 1528 1530 1532 1533 1535 1536 1537 1538 1539 1540 1540 1540 1541 1541 1541 1541 1541 1541 1541 1540 1540 1540 1540 1539
1509 1513 1513 1506 1497 1492 1491 1494 1497 1499 1502 1504 1504 1504 1506 1506 1507 1507 1508 1511 1515 1518 1521 1523 1526 1528 1530 1532 1534 1535 1536 1537 1538 1539 1540 1540 1541 1541 1541 1541 1541 1541 1541 1540 1540 1540 1540 1539 1539
1508 1509 1506 1500 1494 1491 1494 1497 1498 1497 1499 1501 1503 1502 1505 1505 1505 1506 1508 1512 1515 1518 1521 1523 1525 1528 1530 1532 1533 1535 1536 1537 1538 1539 1540 1540 1541 1541 1541 1541 1541 1541 1541 1540 1540 1540 1539 1539 1538
1508 1504 1499 1493 1489 1491 1494 1497 1498 1497 1498 1501 1502 1502 1504 1504 1505 1506 1509 1512 1516 1518 1521 1523 1525 1528 1530 1532 1533 1535 1536 1537 1538 1539 1540 1540 1540 1541 1541 1541 1541 1540 1540 1540 1540 1539 1539 1538 1538
1504 1500 1492 1487 1487 1489 1492 1495 1496 1495 1496 1499 1500 1501 1503 1504 1505 1506 1509 1512 1515 1518 1521 1523 1525 1528 1530 1531 1533 1534 1536 1537 1538 1539 1540 1540 1540 1540 1541 1540 1540 1540 1540 1540 1539 1539 1538 1538 1537
1501 1499 1492 1488 1488 1487 1490 1494 1494 1495 1495 1498 1500 1499 1501 1503 1504 1506 1509 1512 1515 1518 1520 1523 1525 1527 1529 1531 1533 1534 1536 1537 1538 1539 1539 1540 1540 1540 1540 1540 1540 1540 1539 1539 1538 1538 1537 1537 1536
1500 1498 1488 1485 1487 1486 1490 1492 1494 1495 1496 1497 1498 1499 1500 1501 1503 1506 1509 1512 1514 1517 1519 1522 1524 1526 1528 1530 1532 1534 1535 1536 1537 1538 1539 1539 1540 1540 1540 1540 1539 1539 1539 1538 1538 1537 1537 1536 1536
1497 1491 1484 1485 1486 1487 1489 1490 1492 1493 1494 1495 1496 1497 1498 1500 1502 1505 1507 1509 1512 1515 1518 1521 1523 1525 1527 1530 1531 1533 1534 1536 1537 1537 1538 1539 1539 1539 1539 1539 1539 1539 1538 1538 1537 1537 1536 1536 1535
1490 1485 1485 1488 1489 1489 1489 1490 1491 1491 1490 1491 1493 1495 1496 1499 1502 1504 1506 1509 1511 1514 1517 1519 1522 1524 1526 1528 1530 1532 1533 1535 1536 1537 1537 1538 1538 1538 1538 1538 1538 1538 1537 1537 1536 1536 1535 1535 1534
1487 1485 1487 1487 1489 1489 1489 1489 1490 1489 1489 1490 1492 1493 1494 1497 1500 1502 1505 1508 1510 1513 1515 1518 1520 1523 1525 1527 1529 1531 1532 1534 1535 1535 1536 1537 1537 1537 1537 1537 1537 1537 1536 1536 1535 1535 1534 1534 1533
1484 1484 1487 1488 1489 1489 1489 1488 1488 1487 1488 1489 1489 1491 1493 1495 1498 1502 1504 1507 1509 1511 1514 1516 1519 1521 1524 1526 1528 1530 1531 1532 1533 1534 1535 1535 1536 1536 1536 1536 1536 1536 1535 1535 1534 1534 1533 1532 1532
1482 1484 1485 1486 1487 1488 1488 1487 1487 1484 1487 1487 1488 1489 1492 1494 1496 1499 1501 1504 1507 1509 1512 1515 1517 1520 1522 1524 1526 1528 1530 1531 1532 1533 1533 1534 1535 1535 1535 1535 1535 1534 1534 1534 1533 1532 1532 1531 1530
1482 1483 1483 1483 1484 1485 1487 1484 1482 1483 1485 1486 1486 1488 1490 1492 1494 1496 1499 1501 1504 1507 1510 1513 1516 1518 1521 1523 1525 1526 1528 1529 1530 1531 1532 1533 1533 1534 1534 1534 1533 1533 1533 1532 1532 1531 1531 1530 1529
1479 1480 1479 1477 1480 1483 1486 1477 1476 1480 1482 1483 1484 1486 1487 1489 1492 1494 1497 1499 1502 1505 1508 1511 1513 1516 1518 1521 1523 1524 1526 1528 1529 1530 1531 1531 1532 1532 1532 1532 1532 1532 1531 1531 1530 1530 1529 1528 1527
1474 1472 1471 1474 1477 1479 1479 1473 1474 1478 1480 1480 1482 1483 1485 1487 1489 1491 1494 1496 1499 1502 1505 1508 1511 1514 1516 1519 1521 1523 1524 1526 1527 1528 1529 1530 1530 1530 1531 1531 1530 1530 1530 1530 1529 1529 1528 1527 1526
1465 1465 1467 1470 1473 1476 1475 1472 1474 1477 1478 1478 1479 1480 1482 1483 1485 1488 1490 1493 1496 1499 1502 1505 1508 1511 1514 1516 1518 1520 1522 1523 1525 1526 1527 1528 1528 1529 1529 1529 1529 1528 1528 1528 1527 1527 1526 1525 1524
1464 1465 1466 1468 1473 1474 1472 1470 1471 1474 1475 1475 1476 1477 1478 1480 1482 1484 1487 1489 1492 1495 1498 1502 1505 1508 1511 1513 1515 1517 1519 1521 1523 1524 1525 1526 1526 1527 1527 1527 1527 1527 1526 1526 1526 1525 1524 1523 1522
1467 1466 1466 1470 1473 1473 1470 1468 1468 1470 1470 1471 1472 1473 1474 1476 1478 1480 1482 1485 1487 1491 1494 1497 1501 1504 1507 1510 1513 1515 1517 1519 1520 1521 1522 1523 1524 1524 1525 1525 1525 1525 1525 1524 1524 1523 1522 1521 1521
1466 1466 1465 1468 1473 1473 1472 1464 1462 1464 1467 1468 1468 1469 1471 1472 1473 1475 1478 1480 1483 1486 1489 1493 1496 1500 1504 1507 1510 1512 1514 1516 1517 1519 1520 1521 1522 1522 1523 1523 1523 1523 1523 1523 1522 1522 1521 1520 1520
1464 1464 1466 1468 1470 1468 1470 1462 1453 1457 1461 1463 1464 1465 1466 1468 1469 1471 1473 1475 1478 1481 1485 1489 1492 1496 1500 1503 1505 1508 1510 1512 1514 1516 1517 1518 1519 1520 1520 1521 1521 1521 1521 1521 1520 1520 1519 1519 1518
1463 1466 1467 1467 1467 1469 1468 1468 1449 1455 1455 1456 1459 1461 1462 1464 1465 1466 1468 1471 1474 1477 1481 1484 1488 1492 1495 1499 1502 1505 1507 1510 1512 1513 1514 1515 1516 1517 1518 1518 1519 1519 1519 1518 1518 1518 1518 1517 1517
1466 1468 1469 1468 1467 1469 1460 1461 1446 1448 1449 1451 1455 1457 1458 1459 1461 1463 1464 1467 1470 1473 1476 1480 1483 1487 1491 1494 1498 1501 1503 1506 1508 1510 1511 1513 1514 1514 1515 1516 1516 1516 1516 1516 1516 1516 1515 1515 1514
1464 1465 1467 1466 1464 1455 1454 1455 1444 1446 1449 1451 1453 1454 1455 1456 1458 1459 1460 1462 1465 1468 1471 1475 1479 1482 1486 1490 1493 1497 1500 1502 1505 1507 1508 1509 1510 1511 1512 1513 1513 1514 1514 1514 1514 1513 1513 1512 1512
1461 1460 1459 1456 1451 1447 1455 1449 1443 1448 1450 1452 1453 1453 1454 1454 1455 1456 1457 1459 1461 1464 1467 1470 1474 1478 1482 1485 1489 1493 1496 1499 1501 1504 1505 1507 1508 1509 1509 1510 1511 1511 1511 1511 1511 1511 1510 1510 1509
1459 1458 1459 1458 1454 1451 1446 1444 1445 1448 1449 1450 1451 1452 1452 1452 1453 1453 1454 1456 1458 1461 1463 1466 1470 1474 1478 1481 1485 1489 1492 1495 1498 1500 1502 1504 1505 1506 1507 1507 1508 1508 1508 1508 1508 1508 1507 1506 1506
1458 1459 1460 1458 1453 1444 1440 1439 1436 1443 1444 1448 1449 1450 1451 1451 1451 1452 1452 1454 1455 1458 1460 1464 1467 1470 1474 1478 1481 1485 1489 1492 1495 1497 1499 1500 1501 1503 1504 1504 1505 1505 1505 1505 1505 1505 1504 1503 1502
1460 1461 1457 1454 1452 1443 1439 1436 1441 1443 1446 1447 1448 1450 1450 1450 1450 1450 1451 1452 1454 1456 1458 1461 1464 1467 1471 1475 1478 1482 1485 1489 1491 1494 1495 1497 1499 1500 1501 1501 1502 1502 1502 1502 1502 1501 1501 1500 1499
1460 1457 1457 1456 1455 1450 1441 1443 1447 1448 1449 1449 1450 1450 1450 1450 1450 1450 1450 1451 1452 1454 1456 1458 1461 1465 1468 1472 1476 1479 1482 1485 1488 1490 1492 1494 1496 1497 1498 1498 1499 1499 1499 1499 1499 1499 1498 1497 1496